Weather History for Destin, FL

Change the Weather History Date:

Saturday, August 3, 2013

  Actual Average Record
Temperature  
Mean Temperature 86 °F -  
Max Temperature 90 °F 87 °F 97 °F (1999)
Min Temperature 84 °F 74 °F 72 °F (1997)
Cooling Degree Days 22    
Growing Degree Days 36 (Base 50)    
Moisture  
Dew Point 76 °F    
Average Humidity 72    
Maximum Humidity 80    
Minimum Humidity 62    
Precipitation  
Precipitation 0.00 in - - ()
Sea Level Pressure  
Sea Level Pressure 30.03 in    
Wind  
Wind Speed 4 mph (SW)    
Max Wind Speed 10 mph    
Max Gust Speed 16 mph    
Visibility 10 miles    
Events Thunderstorm    
Averages and records for this station are not official NWS values.
T = Trace of Precipitation, MM = Missing Value Source: NWS Daily Summary

Daily Weather History Graph

Daily Weather History Graph

Search for Another Location

Airport:

Trip Planner

Search our weather history database for the weather conditions in past years. The results will help you decide how hot, cold, wet, or windy it might be!

Date:

Astronomy

Aug. 03, 2013 Rise Set
Actual Time 6:05 AM CDT 7:38 PM CDT
Civil Twilight 5:39 AM CDT 8:03 PM CDT
Nautical Twilight 5:08 AM CDT 8:34 PM CDT
Astronomical Twilight 4:36 AM CDT 9:07 PM CDT
Moon 3:17 AM CDT (8/3) 5:18 PM CDT (8/3)
Length of Visible Light 14h 24m
Length of Day
13h 32m
Waning Crescent, 9% of the Moon is Illuminated
Aug 3
Waning Crescent
Aug 6
New
Aug 14
First Quarter
Aug 20
Full
Aug 28
Last Quarter

Hourly Weather History & Observations

Time (CDT) Temp. Heat Index Dew Point Humidity Pressure Visibility Wind Dir Wind Speed Gust Speed Precip Events Conditions
12:53 AM 84.0 °F 93.7 °F 77.0 °F 79% 30.02 in 10.0 mi Calm Calm - N/A   Partly Cloudy
1:53 AM 84.0 °F 93.7 °F 77.0 °F 79% 30.00 in 10.0 mi SW 4.6 mph - N/A   Partly Cloudy
2:53 AM 84.0 °F 92.6 °F 75.9 °F 76% 29.99 in 10.0 mi SW 5.8 mph - N/A   Partly Cloudy
3:53 AM 84.0 °F 92.6 °F 75.9 °F 76% 29.99 in 10.0 mi WSW 4.6 mph - N/A   Partly Cloudy
4:53 AM 84.0 °F 93.7 °F 77.0 °F 79% 29.99 in 10.0 mi Variable 4.6 mph - N/A   Mostly Cloudy
5:53 AM 84.0 °F 92.6 °F 75.9 °F 76% 30.00 in 10.0 mi Calm Calm - N/A   Clear
6:53 AM 84.0 °F 92.6 °F 75.9 °F 76% 30.01 in 10.0 mi Variable 3.5 mph - N/A   Clear
7:53 AM 86.0 °F 96.9 °F 77.0 °F 74% 30.03 in 10.0 mi Calm Calm - N/A   Mostly Cloudy
8:06 AM 84.2 °F 94.1 °F 77.0 °F 79% 30.04 in 10.0 mi Calm Calm - N/A   Mostly Cloudy
8:53 AM 87.1 °F 98.8 °F 77.0 °F 72% 30.04 in 10.0 mi Calm Calm - N/A   Scattered Clouds
9:16 AM 87.8 °F 97.6 °F 75.2 °F 66% 30.05 in 10.0 mi Calm Calm - N/A   Mostly Cloudy
9:26 AM 87.8 °F 99.7 °F 77.0 °F 70% 30.05 in 10.0 mi Calm Calm - N/A   Partly Cloudy
9:53 AM 89.1 °F 103.2 °F 78.1 °F 70% 30.04 in 10.0 mi Variable 5.8 mph - N/A   Partly Cloudy
10:53 AM 88.0 °F 100.2 °F 77.0 °F 70% 30.06 in 10.0 mi Variable 5.8 mph - N/A   Scattered Clouds
11:18 AM 87.8 °F 99.7 °F 77.0 °F 70% 30.07 in 10.0 mi WSW 8.1 mph - N/A Thunderstorm Partly Cloudy
11:53 AM 87.1 °F 94.5 °F 73.0 °F 63% 30.07 in 10.0 mi SW 10.4 mph 16.1 mph N/A   Partly Cloudy
12:53 PM 84.9 °F 91.4 °F 73.0 °F 67% 30.06 in 10.0 mi SSW 9.2 mph - N/A   Clear
1:18 PM 86.0 °F 91.8 °F 71.6 °F 62% 30.06 in 10.0 mi Variable 5.8 mph - N/A Thunderstorm Clear
1:51 PM 87.8 °F 97.6 °F 75.2 °F 66% 30.05 in 10.0 mi WSW 9.2 mph - N/A   Clear
1:53 PM 88.0 °F 97.5 °F 75.0 °F 65% 30.05 in 10.0 mi SW 9.2 mph - N/A   Clear
2:53 PM 86.0 °F 96.0 °F 75.9 °F 72% 30.03 in 10.0 mi SW 9.2 mph - N/A   Mostly Cloudy
3:53 PM 89.1 °F 100.2 °F 75.9 °F 65% 30.01 in 10.0 mi WSW 9.2 mph 16.1 mph N/A   Mostly Cloudy
4:53 PM 87.1 °F 96.3 °F 75.0 °F 67% 30.01 in 10.0 mi SW 8.1 mph - N/A   Clear
5:53 PM 88.0 °F 98.5 °F 75.9 °F 67% 30.00 in 10.0 mi WSW 6.9 mph 16.1 mph N/A   Clear
6:53 PM 87.1 °F 97.3 °F 75.9 °F 69% 30.02 in 10.0 mi WSW 5.8 mph - N/A   Clear
7:53 PM 86.0 °F 96.9 °F 77.0 °F 74% 30.04 in 10.0 mi Variable 3.5 mph - N/A   Scattered Clouds
8:07 PM 86.0 °F 99.3 °F 78.8 °F 79% 30.05 in 10.0 mi Calm Calm - N/A   Mostly Cloudy
8:53 PM 86.0 °F 98.3 °F 78.1 °F 77% 30.05 in 10.0 mi WSW 4.6 mph - N/A   Mostly Cloudy
9:06 PM 86.0 °F 96.9 °F 77.0 °F 74% 30.05 in 10.0 mi WSW 4.6 mph - N/A   Mostly Cloudy
9:53 PM 86.0 °F 96.9 °F 77.0 °F 74% 30.06 in 10.0 mi WSW 4.6 mph - N/A   Clear
10:53 PM 84.9 °F 96.6 °F 78.1 °F 80% 30.06 in 10.0 mi Variable 4.6 mph - N/A   Clear
11:53 PM 84.9 °F 95.3 °F 77.0 °F 77% 30.05 in 10.0 mi WSW 8.1 mph - N/A   Clear